sat.trackr.live / text

‹ back to catalog

T1DES 1 (DRAGOON 1)

NORAD 64542 · 2025-135Q

PAYLOAD ACTIVE UNKNOWN

§ Identity

Operator
Country
US
Launch date
2025-06-23
Launch site
AFWTR
Launch vehicle
Mass (kg)
RCS (m²)

External: N2YO · Heavens-Above · Gunter

§ Orbital elements

Epoch: 2026-05-24T21:33:27.999072Z

Period
94.40 min
Inclination
97.4673°
Eccentricity
0.0001561
Mean motion
15.25410573 rev/d
Perigee alt
488.5 km
Apogee alt
490.6 km
Semi-major
6,867.7 km
B*
3.2571e-4
RAAN
261.1019°
Arg perigee
233.3297°
Mean anomaly
126.7798°
Rev number
5,137

§ Raw data

T1DES 1 (DRAGOON 1)1 64542U 25135Q   26144.89824073  .00008157  00000+0  32571-3 0  99962 64542  97.4673 261.1019 0001561 233.3297 126.7798 15.25410573 51370

JSON: /api/v1/satellites/64542 · /tle

For live sub-satellite position, see the globe view (requires WebGL).

§ Visibility from observer

Set your observer location to see the next 7 days of passes ≥ 10°. The values pass through the URL so the page stays shareable.

No JS? Fill the form by hand. The geolocation button needs JavaScript.

§ Radio — SatNOGS DB

ModeDescriptionDownlinkUplink
FM Mode S - Transmitter 2.226 GHz
BPSK S-band telemetry 2.226 GHz

2 transmitters · refreshed weekly from db.satnogs.org